KE9DBJ-13 Weather Reports


time (UTC)temp
C
wind
direction
speed
KPH
gust
KPH
rain 1hr
cm
rain 24hr
cm
rain mn
cm
humidity
%
barometer
mb
20260503200002 20 344 0.0 12.9 0.00 0.00 0.00 34 1014.9
20260503195003 20 308 0.0 11.3 0.00 0.00 0.00 34 1015.1
20260503194003 20 300 0.0 11.3 0.00 0.00 0.00 34 1015.4
20260503193002 20 300 0.0 11.3 0.00 0.00 0.00 33 1015.7
20260503192002 20 280 0.0 12.9 0.00 0.00 0.00 36 1016.1
20260503191002 19 186 0.0 11.3 0.00 0.00 0.00 34 1016.1
20260503190002 19 324 0.0 11.3 0.00 0.00 0.00 34 1016.3
20260503185002 18 34 0.0 11.3 0.00 0.00 0.00 34 1016.5
20260503184002 19 14 0.0 8.0 0.00 0.00 0.00 34 1016.6
20260503183002 19 318 0.0 11.3 0.00 0.00 0.00 33 1016.6
20260503182002 20 304 0.0 9.7 0.00 0.00 0.00 36 1016.7
20260503181002 18 352 0.0 9.7 0.00 0.00 0.00 32 1016.8
20260503180003 18 133 0.0 6.4 0.00 0.00 0.00 34 1017.1
20260503175003 18 80 0.0 11.3 0.00 0.00 0.00 35 1017.1
20260503174003 18 325 0.0 9.7 0.00 0.00 0.00 34 1017.4
20260503173003 18 306 0.0 14.5 0.00 0.00 0.00 32 1017.5
20260503172002 18 295 0.0 11.3 0.00 0.00 0.00 35 1017.7
20260503171002 18 304 0.0 9.7 0.00 0.00 0.00 36 1018.0
20260503151003 16 323 0.0 9.7 0.00 0.00 0.00 42 1019.4
20260503131002 4 43 0.0 3.2 0.00 0.00 0.00 99 1020.5
20260503081002 0 0.0 0.0 0.00 0.00 0.00 99 1019.7
20260503072003 0 0.0 0.0 0.00 0.00 0.00 99 1019.6
20260503071003 0 0.0 0.0 0.00 0.00 0.00 99 1019.6
20260503055002 0 0.0 0.0 0.00 0.00 0.00 99 1020.0
20260503054002 0 0.0 0.0 0.00 0.00 0.00 99 1020.0
20260503053002 0 0.0 0.0 0.00 0.00 0.00 99 1020.0
20260503052002 0 0.0 0.0 0.00 0.00 0.00 99 1019.9
20260503051002 1 0.0 0.0 0.00 0.00 0.00 99 1019.9
20260503050002 1 180 0.0 3.2 0.00 0.00 0.00 99 1019.8
20260503045003 1 0.0 0.0 0.00 0.00 0.00 99 1019.9
20260503044003 1 0.0 0.0 0.00 0.00 0.00 99 1019.9
20260503043003 1 0.0 0.0 0.00 0.00 0.00 99 1019.9
20260503042003 1 0.0 0.0 0.00 0.00 0.00 99 1019.9
20260503041003 1 0.0 0.0 0.00 0.00 0.00 99 1019.9
20260503040003 1 0.0 0.0 0.00 0.00 0.00 98 1019.9
20260503035002 1 0.0 0.0 0.00 0.00 0.00 97 1020.0
20260503034002 1 0.0 0.0 0.00 0.00 0.00 96 1019.9
20260503033002 2 0.0 0.0 0.00 0.00 0.00 95 1019.9
20260503032002 2 0.0 0.0 0.00 0.00 0.00 94 1019.8
20260503031002 2 0.0 0.0 0.00 0.00 0.00 92 1019.8
20260503030002 2 0.0 0.0 0.00 0.00 0.00 91 1019.6
20260503025002 3 0.0 0.0 0.00 0.00 0.00 89 1019.6
20260503024002 3 180 0.0 3.2 0.00 0.00 0.00 86 1019.5
20260503023002 3 180 0.0 3.2 0.00 0.00 0.00 83 1019.3
20260503022002 3 180 0.0 3.2 0.00 0.00 0.00 80 1019.1
20260503021003 4 0.0 0.0 0.00 0.00 0.00 76 1019.0
20260503020003 4 0.0 0.0 0.00 0.00 0.00 73 1018.9
20260503015003 5 243 0.0 3.2 0.00 0.00 0.00 71 1018.6
20260503014003 5 180 0.0 3.2 0.00 0.00 0.00 69 1018.6
20260503013002 6 177 0.0 3.2 0.00 0.00 0.00 65 1018.4
20260503012002 6 180 0.0 3.2 0.00 0.00 0.00 64 1018.2
20260503011003 7 195 0.0 4.8 0.00 0.00 0.00 53 1018.0
20260503010002 7 187 0.0 3.2 0.00 0.00 0.00 54 1018.0
20260503005002 8 189 0.0 3.2 0.00 0.00 0.00 49 1017.9
20260503004002 8 166 0.0 4.8 0.00 0.00 0.00 49 1017.6
20260503003002 10 78 0.0 4.8 0.00 0.00 0.00 43 1017.6
20260503002002 10 310 0.0 8.0 0.00 0.00 0.00 41 1017.4
20260503001002 10 72 0.0 6.4 0.00 0.00 0.00 42 1017.2
20260503000002 11 332 0.0 11.3 0.00 0.00 0.00 40 1017.2
20260502235002 12 309 0.0 14.5 0.00 0.00 0.00 38 1017.0
20260502234002 12 329 0.0 16.1 0.00 0.00 0.00 36 1016.9
20260502233002 13 316 0.0 8.0 0.00 0.00 0.00 36 1016.9
20260502232003 12 349 0.0 9.7 0.00 0.00 0.00 36 1016.9
20260502231003 12 8 0.0 11.3 0.00 0.00 0.00 38 1016.9
20260502230003 12 21 0.0 12.9 0.00 0.00 0.00 37 1016.7
20260502225003 12 22 0.0 9.7 0.00 0.00 0.00 37 1016.9
20260502224002 12 360 0.0 6.4 0.00 0.00 0.00 36 1016.9
20260502223002 13 357 0.0 12.9 0.00 0.00 0.00 36 1016.7
20260502222002 12 178 0.0 9.7 0.00 0.00 0.00 36 1016.7
20260502221002 13 342 0.0 9.7 0.00 0.00 0.00 36 1016.7
20260502220002 13 58 0.0 14.5 0.00 0.00 0.00 36 1016.5
20260502215002 13 342 0.0 8.0 0.00 0.00 0.00 35 1016.5
20260502214002 12 330 0.0 11.3 0.00 0.00 0.00 35 1016.6
20260502213002 13 345 0.0 11.3 0.00 0.00 0.00 36 1016.5
20260502212002 13 309 0.0 12.9 0.00 0.00 0.00 34 1016.5
20260502211002 13 234 0.0 9.7 0.00 0.00 0.00 34 1016.5
20260502210002 13 289 0.0 17.7 0.00 0.00 0.00 35 1016.5
20260502205002 13 1 0.0 14.5 0.00 0.00 0.00 34 1016.6
20260502204003 13 8 0.0 11.3 0.00 0.00 0.00 35 1016.6
20260502203003 12 252 0.0 14.5 0.00 0.00 0.00 35 1016.7
20260502202003 13 327 0.0 20.9 0.00 0.00 0.00 32 1016.8
20260502201003 15 318 0.0 12.9 0.00 0.00 0.00 33 1016.7